Location: Carite
(10.3909°N, 67.0102°W)
Time: 00:50:59
(UTC+00:00)

Cosmos 2263 Rocket - Pass Details

Date: 08 September 2024
Orbit: 821 x 849 km, 71.0° (Epoch: 06 October)

Event Time Altitude Azimuth Distance (km) Brightness Sun altitude
Rises 23:16:38 0° 324° (NW) 3,402 6.1 -11.6°
Reaches altitude 10° 23:19:26 10° 312° (NW) 2,466 5.5 -12.3°
Maximum altitude 23:24:04 26° 257° (WSW) 1,599 4.5 -13.4°
Drops below altitude 10° 23:28:41 10° 201° (SSW) 2,459 4.8 -14.5°
Sets 23:31:30 0° 189° (S) 3,389 5.4 -15.2°
